Phoenix Deer Valley, AZ

5:11 AM MST on November 20, 2019 (GMT -0700)
Phoenix-Deer Valley Municipal

Weather History for KDVT - September, 2019

Change the Weather History Date:

Saturday, September 14, 2019

  Actual Average Record
Temperature  
Mean Temperature 90 °F -  
Max Temperature 100 °F 95 °F 109 °F (2000)
Min Temperature 79 °F 74 °F 68 °F (2005)
Cooling Degree Days 24    
Growing Degree Days 40 (Base 50)    
Moisture  
Dew Point 56 °F    
Average Humidity 34    
Maximum Humidity 56    
Minimum Humidity 21    
Precipitation  
Precipitation 0.13 in - - ()
Sea Level Pressure  
Sea Level Pressure 29.89 in    
Wind  
Wind Speed 9 mph ()    
Max Wind Speed 29 mph    
Max Gust Speed 43 mph    
Visibility 9.8 miles    
Events Rain , Thunderstorm    
Averages and records for this station are not official NWS values.
T = Trace of Precipitation, MM = Missing Value Source: Averaged Metar Reports

Daily Weather History Graph

Daily Weather History Graph

Search for Another Location

Airport or City:

Astronomy

Sep. 14, 2019 Rise Set
Actual Time 6:10 AM MST 6:36 PM MST
Civil Twilight 5:45 AM MST 7:01 PM MST
Nautical Twilight 5:16 AM MST 7:30 PM MST
Astronomical Twilight 4:46 AM MST 8:00 PM MST
Moon 7:18 PM MST (9/14) 6:29 AM MST (9/14)
Length of Visible Light 13h 15m
Length of Day
12h 25m
Full, 100% of the Moon is Illuminated
Sep 14
Full
Sep 21
Last Quarter
Sep 28
New
Oct 5
First Quarter
Oct 13
Full

Hourly Weather History & Observations

Time (MST) Temp. Heat Index Dew Point Humidity Pressure Visibility Wind Dir Wind Speed Gust Speed Precip Events Conditions
12:53 AM 87.1 °F - 45.0 °F 23% 29.83 in 10.0 mi East 5.8 mph - N/A   Clear
1:53 AM 91.9 °F - 50.0 °F 24% 29.84 in 10.0 mi SE 12.7 mph 21.9 mph N/A   Clear
3:53 AM 88.0 °F 85.9 °F 54.0 °F 31% 29.84 in 10.0 mi ESE 15.0 mph - N/A   Clear
4:53 AM 88.0 °F 86.1 °F 55.0 °F 32% 29.86 in 10.0 mi ESE 13.8 mph 20.7 mph N/A   Clear
5:53 AM 86.0 °F 84.5 °F 55.0 °F 35% 29.88 in 10.0 mi SE 6.9 mph - N/A   Clear
6:53 AM 86.0 °F 84.2 °F 54.0 °F 33% 29.90 in 10.0 mi ESE 5.8 mph - N/A   Clear
7:53 AM 87.1 °F 85.3 °F 55.0 °F 33% 29.92 in 10.0 mi ESE 6.9 mph - N/A   Clear
8:53 AM 88.0 °F 86.1 °F 55.0 °F 32% 29.93 in 10.0 mi SE 6.9 mph - N/A   Clear
9:53 AM 91.9 °F 90.0 °F 55.0 °F 29% 29.92 in 10.0 mi SE 12.7 mph - N/A   Clear
10:53 AM 93.0 °F 91.1 °F 55.0 °F 28% 29.92 in 10.0 mi SE 10.4 mph 17.3 mph N/A   Clear
11:53 AM 93.0 °F 91.1 °F 55.0 °F 28% 29.90 in 10.0 mi Variable 5.8 mph - N/A   Clear
12:53 PM 96.1 °F 94.1 °F 55.0 °F 25% 29.86 in 10.0 mi Calm Calm - N/A   Clear
1:06 PM 96.1 °F 94.1 °F 55.0 °F 25% 29.94 in 10.0 mi SW 5.8 mph - N/A   Clear
1:53 PM 97.0 °F 94.6 °F 54.0 °F 23% 29.82 in 10.0 mi Variable 6.9 mph - N/A   Clear
2:53 PM 97.0 °F 94.6 °F 54.0 °F 23% 29.81 in 10.0 mi South 9.2 mph - N/A   Clear
3:53 PM 98.1 °F 95.7 °F 53.1 °F 22% 29.79 in 10.0 mi South 12.7 mph 18.4 mph N/A   Clear
4:36 PM 100.0 °F 97.9 °F 53.1 °F 21% 29.88 in 10.0 mi South 8.1 mph - N/A   Clear
4:53 PM 98.1 °F 96.1 °F 54.0 °F 23% 29.80 in 10.0 mi SE 28.8 mph 34.5 mph N/A   Clear
5:21 PM 91.9 °F 90.6 °F 57.0 °F 31% 29.89 in 7.0 mi ESE 28.8 mph 42.6 mph N/A Thunderstorm Mostly Cloudy
5:53 PM 90.0 °F 88.1 °F 55.9 °F 31% 29.84 in 10.0 mi ESE 20.7 mph 29.9 mph N/A   Partly Cloudy
6:36 PM 84.9 °F 84.4 °F 59.0 °F 41% 29.97 in 10.0 mi East 16.1 mph 24.2 mph N/A Thunderstorm Scattered Clouds
6:53 PM 84.9 °F 83.9 °F 57.0 °F 38% 29.91 in 10.0 mi NE 15.0 mph 26.5 mph N/A Thunderstorm Mostly Cloudy
7:13 PM 79.0 °F - 60.1 °F 52% 29.97 in 7.0 mi North 19.6 mph 28.8 mph 0.03 in Rain , Thunderstorm Thunderstorms and Rain
7:53 PM 80.1 °F 80.9 °F 60.1 °F 50% 29.91 in 10.0 mi ENE 3.5 mph - 0.13 in Thunderstorm Mostly Cloudy
8:06 PM 79.0 °F - 62.1 °F 56% 29.98 in 10.0 mi North 11.5 mph - N/A   Mostly Cloudy
8:53 PM 81.0 °F 81.9 °F 62.1 °F 52% 29.90 in 10.0 mi ENE 6.9 mph - N/A   Mostly Cloudy
9:53 PM 82.0 °F 82.4 °F 60.1 °F 47% 29.92 in 10.0 mi NE 6.9 mph - N/A   Clear
10:53 PM 82.0 °F 82.0 °F 57.9 °F 44% 29.91 in 10.0 mi NE 10.4 mph - N/A   Clear
11:53 PM 80.1 °F 80.9 °F 60.1 °F 50% 29.88 in 10.0 mi East 4.6 mph - N/A   Clear